Powrót do katalogu

ARIANE 5 R/B

AktywnyHEO
NORAD 40334·ROCKET BODY·🇫🇷 France

Wystrzelony Dec 6, 2014 z Guiana Space Centre

Loading…

Następne Przeloty (najbliższe 24 godziny)

TLE

ŚwieżeSource: Space-Track

Epoka: Sep 14, 2026, 09:15 UTC

1 40334U 14078C   26257.38608976  .00004830  00000-0  73951-3 0  9996
2 40334   6.5111 304.5872 6776695 295.8053  10.8343  2.95155847109877

Śledź ARIANE 5 R/B w czasie rzeczywistym z AllMySat

Download on the App Store